Theta_e
328 326 330 332 333 335 333 334 330 331 332 331 330 328 328 323 327 328 329 329 329 330 333 334 338 341 341 342 341 341 338 337 336 332 332 333 330 331 334 331 332 336 334 333 330 325 323 319 322 335 337 336 336 336 339 336 334 335 337 337 337 340 340
328 330 329 329 337 337 328 338 331 329 330 333 330 328 330 324 324 325 326 325 326 326 329 326 328 328 333 336 339 340 338 338 337 335 333 330 330 329 331 329 332 330 329 330 331 330 322 320 321 324 326 334 336 336 337 335 335 335 336 335 335 338 341
335 326 326 332 329 334 328 330 332 329 330 331 333 330 329 323 323 324 323 321 322 322 326 324 325 328 329 331 334 337 339 337 338 337 334 334 334 334 331 330 327 328 328 324 328 328 327 327 322 323 326 328 327 331 336 336 334 334 336 337 335 336 338
322 329 325 327 328 329 325 327 327 328 330 330 330 331 330 327 326 327 324 320 322 324 324 324 324 324 325 327 329 329 332 336 336 337 335 334 333 331 331 331 329 328 326 325 327 325 325 325 324 324 326 327 328 328 333 338 340 336 335 335 335 336 336
324 323 323 324 324 325 327 326 327 329 328 329 330 329 328 327 327 327 327 324 323 323 323 323 322 321 320 322 324 325 325 329 336 337 336 334 333 332 332 332 330 331 330 329 328 330 328 326 325 324 325 328 329 330 334 338 344 338 334 334 336 335 336
327 327 325 325 326 326 325 325 326 325 327 324 326 325 326 325 324 323 323 323 323 325 324 320 319 318 320 320 321 322 323 323 326 333 335 335 334 332 331 334 334 331 330 331 331 329 329 327 327 324 326 329 326 327 332 335 334 338 336 336 335 337 337
327 326 326 325 327 326 326 326 325 325 324 324 323 322 324 322 322 323 323 323 323 321 320 319 319 319 318 318 318 318 319 321 323 324 328 334 335 335 334 332 332 331 332 332 331 329 328 328 325 325 325 327 329 326 330 332 335 330 334 336 337 338 339
328 328 327 327 326 327 327 324 324 325 324 323 322 323 324 323 322 322 322 321 321 321 321 321 321 319 319 319 319 318 319 320 321 322 323 329 334 334 334 334 333 333 333 333 331 330 329 328 327 327 327 323 324 325 325 329 332 330 331 338 336 335 338
327 326 326 326 326 327 325 325 324 324 324 323 323 323 323 323 322 322 322 321 321 321 321 320 320 318 318 318 318 317 316 319 317 319 319 321 326 334 334 335 334 333 334 334 332 331 331 331 331 330 328 326 322 319 324 324 326 326 333 331 337 338 336
326 324 325 325 324 325 325 324 322 322 322 322 321 322 321 321 321 322 321 322 322 322 321 320 320 319 319 318 317 317 316 318 318 317 318 319 321 322 329 334 334 334 334 335 334 332 331 332 332 331 330 327 326 322 320 320 323 324 329 332 329 335 338
322 322 322 321 322 322 322 323 323 322 322 322 322 322 321 320 320 322 319 319 320 321 322 321 320 319 320 319 318 317 317 317 316 317 318 319 319 321 323 326 333 334 335 335 333 332 332 332 333 331 330 329 330 325 323 321 321 328 329 336 334 332 338
324 323 322 321 321 319 319 319 319 319 320 320 320 319 319 319 319 319 319 318 318 317 317 318 319 320 319 318 319 319 319 318 316 315 316 316 317 318 317 318 320 326 334 335 334 333 333 334 334 333 331 331 331 329 327 325 321 328 332 327 333 337 336
318 318 319 320 320 320 320 319 318 318 319 320 319 318 317 317 317 316 316 315 315 316 316 317 317 316 317 318 318 318 318 318 316 315 314 315 315 315 316 316 317 321 329 334 334 333 333 334 334 332 332 332 332 332 330 326 323 323 332 329 332 336 338
323 321 321 321 320 320 320 320 319 318 318 317 316 315 315 314 314 314 313 314 313 313 314 315 316 316 315 315 315 316 316 316 315 315 316 315 314 314 314 315 316 317 321 327 332 332 332 333 333 332 333 330 329 330 330 327 324 324 329 334 334 333 338
321 321 320 320 319 319 318 317 318 318 317 318 318 317 316 316 315 314 313 312 312 313 313 313 313 314 313 313 314 315 314 315 315 315 315 314 315 315 314 313 315 317 318 318 326 334 334 334 334 332 333 331 330 330 332 329 326 326 325 332 331 336 335
321 321 320 320 320 319 319 319 319 317 317 316 316 316 316 316 315 315 314 314 314 314 314 313 314 314 314 313 312 312 313 313 312 313 314 314 315 314 313 313 313 314 319 319 321 329 334 333 334 333 333 332 331 330 331 331 328 325 325 327 332 331 333
320 320 319 319 318 319 319 318 318 316 315 315 314 315 315 315 314 314 314 313 313 312 313 313 313 313 313 312 312 312 312 312 313 313 313 313 314 314 313 312 312 313 315 317 318 322 332 334 333 333 333 333 332 331 331 331 330 328 328 327 331 331 333
318 318 318 318 317 316 315 314 314 313 313 313 313 313 314 314 313 313 313 312 312 312 312 312 312 312 312 312 312 312 312 311 312 312 312 312 315 313 314 313 313 312 312 313 316 318 325 333 334 332 332 332 331 331 331 330 329 330 327 326 328 332 333
318 317 316 315 315 314 313 313 313 313 312 311 311 312 312 312 312 311 311 311 311 311 311 310 310 310 310 311 311 312 312 312 313 312 312 312 312 313 313 313 314 314 313 312 313 316 320 327 332 332 331 331 330 330 330 329 330 329 328 326 326 328 331
316 315 315 314 314 314 314 313 311 310 312 311 310 310 311 310 311 310 310 311 311 310 310 311 311 311 311 311 311 310 311 312 312 313 313 312 312 313 313 313 314 314 313 312 313 313 316 321 330 331 331 331 331 330 329 329 329 328 327 327 328 328 329
315 313 312 312 312 312 311 311 311 311 311 311 311 310 310 310 310 311 310 310 311 311 311 310 310 310 311 310 311 311 311 312 312 312 313 313 313 313 313 313 313 313 313 313 313 314 316 317 324 328 331 331 330 330 329 329 328 328 327 326 326 326 327
313 313 312 311 310 310 310 310 310 310 310 310 311 310 310 309 309 309 309 309 309 310 310 310 310 310 310 310 311 310 311 311 311 311 312 312 313 312 312 313 313 314 316 320 320 319 320 321 319 323 330 331 330 329 329 328 326 325 326 326 325 326 326
311 311 309 309 309 309 309 309 309 309 309 309 309 309 309 309 308 308 307 307 308 309 309 310 312 310 309 311 310 310 310 310 310 310 310 311 312 312 312 313 315 319 319 319 319 315 312 312 315 319 325 328 330 329 327 326 325 326 325 324 324 324 322
309 308 308 309 309 309 308 308 309 309 309 309 309 309 310 308 307 308 307 307 307 308 309 309 308 301 301 303 308 309 309 309 309 309 309 309 309 310 311 312 313 316 318 318 317 313 310 310 310 309 313 321 328 329 327 326 325 325 324 322 324 325 324
308 307 308 307 307 307 308 308 308 307 308 308 308 309 308 307 307 307 307 307 307 308 308 308 301 301 300 299 303 308 308 308 308 308 308 308 309 310 310 311 312 314 314 315 315 316 315 312 308 307 308 310 315 318 320 326 325 323 324 323 324 325 324
306 306 306 306 307 307 306 306 306 306 306 308 308 307 307 307 307 307 307 306 306 307 307 305 301 301 300 299 299 304 306 307 307 307 307 308 308 309 309 310 310 312 313 317 317 313 312 312 312 310 309 311 313 312 306 308 315 328 327 326 325 325 325
305 305 306 306 306 306 306 305 307 307 307 307 307 307 307 307 307 307 307 307 306 307 307 306 301 300 300 299 298 300 306 306 307 307 307 307 308 308 309 309 309 310 311 312 312 312 312 311 311 314 317 315 317 321 315 307 309 313 324 329 328 325 329
305 305 305 306 306 306 306 306 306 307 307 306 306 306 306 306 307 308 307 307 307 307 307 304 299 298 297 297 296 298 304 306 306 307 307 308 308 308 308 309 309 309 310 310 311 312 311 311 312 314 316 321 319 321 323 322 321 322 324 328 328 328 330
304 305 305 305 305 305 305 305 305 306 307 306 307 307 307 307 306 306 307 306 306 306 309 303 300 300 299 299 299 304 304 304 305 306 306 307 307 308 308 308 308 309 309 310 312 306 309 312 310 309 311 317 323 323 325 326 317 318 327 328 328 328 330
304 304 304 304 304 304 304 305 305 306 305 305 305 305 306 306 306 306 306 308 307 307 308 305 300 298 298 298 300 304 305 305 305 305 306 307 307 307 308 308 308 308 308 309 308 301 300 307 308 308 308 309 314 324 326 328 315 309 310 311 312 313 313
303 304 303 303 303 304 305 305 305 306 305 305 305 306 306 306 307 307 307 306 307 306 305 305 300 299 299 298 301 304 305 305 304 304 305 306 307 307 308 313 313 308 308 308 304 300 299 306 307 307 307 308 310 316 323 328 328 319 308 307 307 307 308
302 302 302 302 303 303 304 304 305 306 306 306 305 306 306 305 305 305 306 305 309 306 305 305 301 299 298 298 301 304 304 304 304 304 305 304 306 306 306 309 312 310 309 308 301 299 298 306 308 307 307 307 308 311 317 326 326 325 320 318 319 319 315
301 301 301 301 303 303 304 304 304 305 305 305 305 305 305 304 304 304 305 305 305 306 305 304 304 299 299 298 298 303 304 304 303 303 304 304 304 304 305 306 308 303 300 300 300 298 297 298 307 308 308 307 306 308 314 321 327 325 325 323 322 323 325
300 301 301 301 302 302 303 303 304 304 304 304 304 304 304 304 304 304 305 305 305 305 305 304 304 299 298 298 297 299 302 302 303 303 303 303 303 303 304 305 306 305 299 299 299 299 297 296 302 309 309 308 309 310 312 316 323 326 326 326 325 324 325
301 302 302 302 302 302 304 304 304 304 303 303 302 302 303 303 303 304 304 305 305 305 306 308 304 301 298 298 297 297 300 303 304 304 303 303 303 303 303 304 305 305 300 298 298 298 297 297 296 310 308 302 302 301 310 316 321 326 327 327 327 325 325
301 301 301 302 302 302 303 303 303 304 303 303 302 302 303 302 302 301 302 302 303 303 303 305 302 303 300 297 297 296 296 299 298 304 302 302 302 303 304 305 307 307 299 298 297 297 298 297 300 303 300 299 300 300 305 316 320 322 325 326 327 325 325
300 300 301 301 302 303 303 303 303 303 304 303 303 302 301 301 299 298 297 297 298 298 299 300 300 299 300 297 296 296 296 295 296 301 303 302 303 304 304 305 305 300 299 298 296 296 297 298 301 299 298 298 298 301 309 315 320 323 322 324 325 325 325
Wind_Speed
3 3 2 3 2 1 1 2 1 2 2 2 2 3 3 3 3 3 3 3 3 3 4 5 4 4 3 2 3 4 3 4 4 6 7 7 7 4 1 7 8 5 5 5 4 4 5 7 7 3 3 6 6 5 3 8 6 8 7 7 6 7 5
2 2 2 3 1 2 2 2 2 1 2 2 2 3 2 3 3 3 3 3 3 3 3 3 3 5 5 5 4 3 3 4 4 4 5 6 7 7 4 6 5 6 5 8 7 6 7 6 9 6 7 3 4 5 3 10 9 7 5 4 7 9 6
1 3 3 2 2 2 2 2 2 2 2 2 2 2 2 3 4 4 3 3 4 4 3 3 4 3 3 4 4 4 4 6 5 5 5 5 5 4 2 6 6 6 5 4 7 7 7 8 9 7 5 5 5 4 4 8 14 11 8 8 8 7 8
3 2 2 2 2 2 3 2 2 3 2 2 3 2 3 3 3 3 3 4 4 4 4 3 3 4 4 3 3 4 5 5 5 5 6 6 5 5 6 6 7 8 8 7 6 6 7 6 6 8 9 9 8 7 4 6 9 11 10 9 8 7 8
2 1 2 2 2 2 2 2 2 2 2 3 2 3 3 4 3 3 3 4 4 3 4 3 3 4 5 4 4 4 4 5 5 5 6 6 7 6 7 6 7 6 5 7 7 5 6 7 6 8 6 4 5 6 3 3 7 10 10 10 9 10 10
3 2 2 3 2 2 3 2 2 3 2 3 3 3 3 4 4 5 5 5 4 3 3 4 5 5 4 5 5 4 5 5 5 6 6 7 6 7 7 7 7 7 9 8 5 5 7 7 6 7 7 5 7 5 2 4 3 6 10 11 11 11 11
3 4 3 3 3 3 3 3 4 4 4 4 4 5 5 5 4 4 4 5 4 5 5 5 6 5 6 6 6 6 6 6 5 6 7 7 6 7 6 6 6 7 7 7 8 8 8 7 7 8 7 6 6 6 4 4 3 4 5 8 10 9 10
3 3 4 4 4 3 3 4 4 4 5 5 5 5 5 5 6 6 5 6 6 6 6 5 6 6 6 7 6 6 7 6 6 7 6 7 8 7 7 7 7 7 7 6 6 6 6 8 8 7 6 8 7 6 6 5 3 7 5 4 8 9 8
4 3 4 4 4 4 4 4 5 4 5 5 5 5 5 6 6 6 7 6 7 6 6 6 6 6 6 6 6 6 8 7 8 8 7 7 8 8 8 8 8 8 7 6 8 8 9 9 8 6 6 5 7 8 5 6 6 6 7 6 5 8 8
4 4 4 4 5 5 5 5 5 6 6 6 6 6 7 7 7 6 7 7 6 6 7 7 7 7 7 7 6 6 8 7 7 8 8 7 7 7 7 8 8 7 7 6 6 7 8 8 9 7 7 8 7 8 7 6 7 6 4 8 6 5 9
5 6 5 6 6 6 6 6 6 6 7 7 6 6 6 7 7 8 8 8 7 7 7 7 7 8 7 7 7 7 6 7 8 8 7 7 7 7 7 7 5 6 7 7 7 8 8 10 10 10 9 9 8 9 8 9 8 5 4 4 5 5 7
4 4 5 6 6 7 7 7 7 8 7 7 7 8 8 8 8 8 8 8 8 9 8 8 8 7 7 7 7 7 6 6 7 8 8 8 8 8 9 10 9 8 7 7 7 8 8 8 9 9 9 8 8 9 10 9 9 4 4 5 3 4 4
5 6 5 5 5 6 6 6 7 7 7 6 7 8 8 8 8 8 8 9 9 8 8 9 8 9 8 7 7 7 7 7 8 9 9 9 9 9 9 10 9 8 7 7 7 7 7 8 8 8 8 8 8 8 8 9 10 10 2 3 3 4 5
5 6 6 7 7 7 7 8 8 8 9 9 10 11 12 12 13 12 12 11 11 11 13 12 8 7 9 9 8 8 8 9 9 8 8 9 9 10 11 11 10 9 7 6 6 7 8 9 9 9 9 8 9 8 8 8 10 10 5 2 2 4 3
5 5 6 6 7 8 9 8 8 9 9 8 8 9 11 10 10 12 12 13 13 12 13 14 12 12 12 11 9 7 8 9 9 9 8 10 9 9 9 11 11 9 8 9 7 8 8 8 8 8 9 8 8 9 8 8 9 9 10 4 4 2 3
5 5 6 5 6 7 7 8 8 8 9 9 9 9 10 10 11 11 13 14 13 12 11 11 10 10 9 10 11 10 10 11 10 9 9 9 10 9 10 10 11 10 8 8 8 6 7 8 8 8 9 8 9 9 9 9 8 9 10 7 5 5 4
5 6 6 6 7 6 7 8 9 10 10 9 11 10 10 11 12 12 12 13 14 13 13 13 14 11 12 12 11 12 11 11 9 9 10 10 10 9 10 11 11 11 9 9 9 7 7 8 8 8 8 8 8 9 8 9 10 8 8 8 5 5 5
6 6 6 5 7 9 9 10 10 13 11 9 9 9 9 9 11 12 11 12 13 14 13 14 15 14 12 11 13 13 13 13 13 13 11 10 9 10 10 10 10 11 11 11 9 8 6 8 8 8 8 8 8 8 8 8 10 8 8 8 4 3 4
5 5 7 8 9 10 11 12 9 6 9 11 11 10 10 9 10 11 12 13 13 14 14 13 13 14 14 13 12 12 11 11 12 12 11 10 10 10 10 11 10 9 10 9 9 8 8 8 8 8 8 8 7 7 8 8 6 6 6 7 7 2 3
6 7 8 8 9 10 7 5 9 10 8 10 10 10 10 11 11 12 13 12 13 13 13 13 12 13 14 13 14 14 12 12 13 11 9 11 10 9 10 10 10 10 10 11 11 10 9 7 6 8 8 8 8 7 8 8 8 7 8 8 6 5 4
7 9 9 10 9 6 8 8 8 8 9 10 10 11 11 11 11 11 11 12 13 12 12 13 13 13 13 12 11 12 12 11 11 11 10 10 9 9 9 9 10 10 10 10 10 9 9 9 6 7 7 7 7 8 8 7 8 8 6 7 6 7 5
9 10 8 6 7 8 8 9 10 11 10 11 10 10 11 12 13 13 13 13 13 12 12 12 11 11 11 12 11 11 11 11 11 11 10 10 10 10 10 9 9 9 10 13 16 15 15 13 7 7 5 7 8 9 8 6 3 4 7 7 7 6 5
7 6 8 9 9 9 9 10 11 11 12 12 12 13 13 13 13 13 13 14 13 12 11 10 13 16 15 12 13 12 12 13 13 12 11 9 9 10 10 9 9 13 15 16 16 16 18 20 18 9 7 6 8 8 7 7 7 8 7 7 7 7 8
9 10 10 10 9 10 12 11 10 10 10 10 10 10 9 11 11 11 12 12 13 11 10 10 15 14 15 17 13 12 12 11 11 11 11 11 11 11 11 10 8 10 12 13 15 18 17 20 23 17 14 11 10 9 8 8 8 9 8 9 8 8 8
11 11 10 11 11 12 11 9 8 9 8 8 8 9 10 11 12 12 12 13 13 12 12 13 16 15 14 15 13 11 11 11 11 12 12 12 11 10 10 10 8 8 8 9 9 8 10 15 21 24 17 13 13 14 13 10 9 8 8 8 8 9 10
12 12 11 12 12 11 9 9 10 10 11 10 9 11 12 13 14 13 14 15 14 13 12 14 16 18 19 19 18 15 13 14 14 14 13 13 13 12 10 10 10 9 8 14 12 11 12 12 14 18 22 18 15 15 15 15 14 11 9 10 10 9 10
13 13 12 12 11 10 9 10 10 9 10 10 11 12 13 14 14 14 13 13 14 14 15 16 19 20 18 17 17 15 14 15 15 15 15 14 13 13 12 12 11 10 9 9 8 9 10 11 12 11 10 11 11 14 15 15 16 16 12 9 8 9 9
14 14 12 12 11 10 10 10 11 10 10 10 11 11 11 12 11 10 11 12 12 12 11 17 13 10 10 12 12 11 9 13 14 14 15 14 15 14 13 13 12 12 11 11 10 10 8 9 11 11 10 10 11 12 11 11 11 10 9 7 8 9 8
13 14 14 13 12 11 10 10 12 11 11 11 11 11 11 11 12 13 13 14 15 14 13 15 17 20 22 22 23 15 12 15 15 16 16 15 15 14 14 14 14 13 13 13 14 14 12 11 12 12 12 9 9 10 10 11 15 14 12 11 11 11 9
13 14 14 14 14 14 12 11 10 9 11 12 12 12 11 11 10 12 14 14 14 16 15 16 14 14 16 19 18 14 10 10 12 15 16 16 16 15 14 14 14 14 14 14 15 15 15 12 12 13 12 12 10 8 8 8 14 17 17 16 16 16 13
15 14 13 13 14 13 13 11 11 10 11 12 11 10 11 12 12 12 13 14 14 14 13 15 19 20 20 19 17 14 11 12 17 18 16 15 14 14 16 27 24 17 16 15 18 17 16 14 13 14 15 12 12 10 7 7 5 9 16 17 15 13 14
13 14 14 14 13 14 13 12 12 11 10 11 12 10 11 12 13 12 12 15 20 21 17 17 21 22 22 21 16 12 13 12 12 13 12 15 15 14 14 17 26 23 19 17 19 17 17 16 13 12 14 14 13 12 9 5 6 7 8 8 6 7 6
14 15 16 15 13 13 13 12 12 12 11 11 11 11 13 13 16 15 15 17 16 18 19 20 21 24 22 21 22 15 11 13 15 16 16 15 15 15 15 15 17 22 24 23 20 18 17 18 14 12 12 14 14 15 9 6 7 7 7 9 9 10 11
14 14 14 13 13 14 13 13 12 12 12 12 12 13 14 14 15 16 16 16 18 19 17 20 22 25 23 23 23 21 14 17 16 14 13 15 15 17 16 15 14 19 22 22 23 23 17 17 18 13 12 13 13 12 10 8 7 11 9 9 10 10 9
12 11 12 12 12 12 12 12 13 12 11 13 15 16 16 15 15 16 16 17 18 20 21 28 21 22 25 25 24 27 17 14 17 15 15 15 14 15 17 17 14 17 21 21 23 24 23 19 18 12 13 13 14 15 12 9 7 6 7 9 8 9 9
12 10 11 12 14 14 12 13 13 13 14 15 16 16 14 14 15 15 15 15 15 16 17 17 26 26 28 25 25 25 28 22 22 17 17 15 16 16 15 15 15 19 19 21 21 23 23 23 20 16 18 17 17 18 10 7 9 8 7 8 9 9 9
12 11 13 13 13 13 13 13 13 13 13 13 12 12 12 13 13 15 16 16 15 14 14 15 18 21 20 23 24 27 27 28 26 18 17 15 15 15 15 15 15 18 18 19 20 21 23 24 19 20 19 21 24 20 12 10 7 7 7 7 8 9 8
Wind_Direction
76 114 146 121 166 229 9 269 314 276 335 325 342 333 318 308 327 336 322 332 322 305 317 318 309 303 289 263 256 243 248 245 222 237 263 261 254 255 333 277 254 250 258 256 241 239 275 292 284 274 243 252 265 289 65 150 202 207 187 192 231 252 225
144 162 191 144 76 94 277 251 242 290 284 332 311 284 297 321 320 305 328 312 303 307 304 308 316 327 320 313 297 261 252 239 227 247 261 275 280 272 271 251 254 245 233 237 242 204 230 247 264 263 271 259 245 239 225 133 191 209 206 213 216 238 239
117 82 324 91 191 125 253 256 235 238 244 265 283 293 319 309 299 310 298 304 303 306 314 301 303 299 312 316 306 298 265 258 240 218 230 252 250 260 252 283 278 261 234 267 243 227 229 225 252 256 252 259 256 234 205 148 162 192 189 215 226 229 241
121 133 205 219 213 203 224 264 278 260 265 276 267 265 260 275 278 284 305 299 302 299 288 300 308 303 293 292 296 299 291 270 253 235 233 232 234 240 247 232 240 244 247 244 220 218 224 226 230 250 250 246 247 266 226 183 163 168 182 197 214 235 242
129 185 206 250 250 257 269 262 257 277 265 266 280 275 264 257 266 265 264 270 274 285 291 298 295 301 297 288 288 281 273 276 268 251 242 241 228 237 239 233 231 247 259 251 251 243 234 239 237 258 266 269 258 237 223 180 167 158 171 191 204 220 232
165 194 224 238 236 233 236 250 255 254 265 270 259 267 270 279 276 271 262 258 255 256 282 292 288 286 289 290 281 276 276 275 274 266 250 246 234 225 232 229 229 222 235 241 255 260 256 262 246 258 255 243 252 253 224 177 194 174 174 185 198 213 221
185 202 210 222 232 230 229 240 247 245 248 252 263 256 253 263 267 272 278 277 274 278 280 279 283 287 289 288 286 284 280 273 269 269 268 259 246 242 235 239 236 235 232 218 232 240 238 234 249 247 255 253 243 256 249 226 188 170 193 187 187 198 220
203 206 215 218 222 229 230 245 244 245 246 249 254 261 265 268 266 266 267 269 270 268 264 267 268 273 277 278 277 279 283 279 273 270 267 264 254 244 236 238 241 235 229 211 207 238 239 238 236 236 236 250 253 243 253 242 205 196 188 171 182 199 217
207 219 227 229 239 233 241 241 251 255 259 265 264 269 266 265 268 269 271 271 272 272 272 269 269 270 272 273 281 287 285 284 284 278 272 271 262 250 245 238 235 238 230 211 203 216 223 232 230 232 233 241 251 259 232 243 229 239 184 184 169 185 214
224 226 226 235 242 245 248 253 255 256 260 260 267 269 273 272 274 273 271 272 271 269 268 267 268 268 267 268 269 278 281 282 281 281 280 274 269 266 258 239 235 233 227 217 203 202 220 235 235 227 212 217 228 245 252 251 240 233 206 186 189 165 190
227 232 235 244 244 250 249 249 248 251 249 251 255 257 258 263 265 269 274 274 276 275 268 262 257 259 260 258 257 261 271 282 284 285 282 277 275 272 263 267 243 231 221 217 217 210 210 219 223 222 222 219 209 227 239 248 258 200 212 181 174 165 161
236 238 240 243 246 246 251 251 253 255 257 258 261 262 264 265 264 264 265 265 264 264 268 272 269 260 257 257 251 251 252 261 273 279 278 277 274 268 264 260 255 245 227 220 213 214 218 222 223 219 220 213 214 215 234 245 259 237 177 211 184 180 167
249 261 266 268 265 261 260 260 262 264 260 260 257 261 263 265 264 266 268 272 271 271 269 263 262 268 266 257 251 246 244 245 253 264 273 275 279 276 274 269 262 254 236 226 216 201 217 223 225 228 228 223 220 215 222 241 245 256 231 203 154 175 177
248 252 258 257 260 262 263 265 266 265 268 264 267 268 270 270 270 268 266 265 267 268 267 265 263 262 257 258 256 253 249 250 256 256 264 271 277 283 281 279 275 273 269 247 210 210 215 218 222 231 224 227 238 226 218 229 244 256 259 201 186 191 152
250 255 262 266 269 274 275 278 282 285 285 284 281 279 275 273 275 278 274 265 257 256 265 272 265 255 259 265 266 261 261 253 248 255 257 264 268 274 280 281 279 272 263 262 242 210 209 216 212 219 223 221 227 230 209 217 230 238 250 186 201 168 168
264 267 271 273 276 278 281 280 278 277 279 283 284 287 292 294 292 291 290 289 288 287 283 276 278 279 273 269 273 278 278 266 253 251 250 253 258 261 267 274 277 276 272 269 264 234 213 220 213 217 220 210 221 225 222 215 222 232 239 233 186 193 174
283 286 285 289 292 301 303 302 299 292 289 287 284 282 285 288 289 285 284 289 291 284 280 282 280 284 287 282 276 272 271 275 266 248 247 247 251 253 259 266 275 283 279 270 265 255 225 220 217 217 220 214 217 220 216 213 214 225 235 239 201 180 159
282 284 291 298 296 295 293 290 283 277 277 282 290 289 280 279 279 278 278 281 283 283 282 282 279 276 278 282 278 271 265 266 269 263 255 258 261 264 263 262 262 267 274 273 269 264 243 212 219 224 221 220 219 221 226 226 226 222 235 243 226 170 134
279 290 292 286 279 274 268 263 268 286 296 288 281 280 284 285 284 284 283 279 275 276 280 279 279 278 273 273 277 278 275 272 272 272 258 242 242 247 258 261 264 264 270 273 272 272 266 233 220 223 223 222 217 215 223 228 226 230 219 234 236 195 125
277 273 266 269 268 262 263 296 298 292 291 293 293 289 284 284 282 280 281 280 281 280 278 277 278 280 281 278 277 277 279 279 278 274 268 256 247 243 249 256 259 260 260 267 273 276 278 269 234 227 217 220 213 211 221 226 213 216 217 217 219 210 154
271 268 268 262 265 295 307 297 291 288 283 279 277 276 281 280 279 280 278 278 278 280 282 281 279 280 281 283 282 280 274 273 276 277 273 265 252 243 243 249 255 264 270 272 275 278 278 275 256 229 218 210 206 209 222 225 221 211 213 223 214 198 175
270 265 268 289 301 297 291 285 277 273 273 275 271 271 269 270 272 271 273 274 273 269 266 267 270 272 277 278 281 283 284 282 280 276 274 278 275 261 252 249 248 248 257 266 269 275 276 279 296 297 248 209 198 211 215 215 179 236 226 210 212 203 173
268 295 299 286 277 267 262 262 260 259 258 258 261 261 260 260 262 266 268 271 272 271 265 263 263 264 263 267 271 274 275 277 279 283 286 286 283 279 265 250 248 252 255 260 263 264 272 279 278 267 261 240 220 195 210 210 207 213 219 210 200 201 172
276 263 258 255 256 258 256 255 254 254 259 263 267 272 276 278 277 276 273 270 267 266 268 269 269 266 266 266 268 269 269 270 275 277 278 278 276 272 272 268 260 253 255 260 266 266 260 269 275 269 266 255 215 199 195 202 206 206 201 215 207 196 185
272 276 279 281 278 268 264 263 269 275 275 276 279 281 280 278 277 274 271 270 268 269 269 268 268 266 262 262 260 263 268 270 269 270 268 267 267 266 262 262 262 258 251 249 258 271 259 250 256 262 255 246 225 206 197 193 199 203 203 211 212 202 191
290 290 289 287 281 281 288 292 289 285 283 281 279 274 273 272 269 267 264 264 265 266 269 266 265 267 267 266 264 263 267 268 267 265 261 260 260 262 263 259 258 258 258 256 258 265 269 272 273 261 252 240 227 217 216 208 202 202 195 206 215 211 203
287 283 281 281 286 296 301 291 282 278 280 277 271 268 265 264 265 264 265 268 269 267 266 267 259 254 254 255 257 256 257 260 260 259 257 255 255 256 254 255 252 252 252 254 253 255 267 276 271 266 254 242 235 233 223 215 215 212 203 205 202 212 212
287 289 291 289 288 289 290 292 293 288 282 279 277 274 274 274 272 277 280 276 273 269 264 264 274 290 291 282 278 275 266 265 259 256 253 251 251 250 251 251 250 248 248 249 244 242 251 262 270 271 256 233 233 231 224 216 216 215 211 204 199 214 217
298 304 304 300 298 292 282 278 280 284 284 282 279 278 278 279 280 278 277 279 277 275 273 264 267 272 274 275 274 272 261 262 262 260 256 251 248 246 246 247 247 245 245 247 245 234 236 250 266 272 285 283 245 228 225 215 212 209 208 206 209 212 218
292 290 292 301 300 297 295 287 282 281 281 280 278 278 282 282 285 285 284 282 280 274 269 264 258 256 257 258 260 258 249 245 252 257 255 251 248 244 240 240 242 244 241 243 240 228 224 229 255 266 267 271 272 251 227 218 208 206 211 212 208 207 205
303 304 303 301 303 301 296 292 288 284 278 277 278 281 282 281 277 272 268 266 266 267 268 266 269 266 258 250 244 248 240 243 250 252 256 254 249 243 241 242 243 240 240 237 234 227 216 215 236 253 265 263 267 263 244 214 191 206 212 215 213 207 206
319 313 310 301 296 294 297 299 298 293 292 295 292 293 289 285 283 278 274 273 268 263 263 262 254 250 248 246 244 242 241 241 242 239 240 248 251 249 244 241 242 242 239 235 232 225 212 209 224 231 249 261 258 259 249 218 220 197 183 198 192 192 212
310 308 304 301 301 300 299 296 293 293 292 290 286 282 284 282 279 275 269 265 263 261 260 258 250 244 246 247 240 241 233 235 238 238 241 244 243 246 246 240 236 232 234 237 237 228 215 205 214 223 227 241 253 250 253 247 208 198 193 185 189 198 200
298 296 295 293 293 289 286 284 287 289 289 287 284 283 281 279 274 271 266 265 267 263 257 254 254 242 241 243 241 237 240 237 238 233 230 236 237 241 241 240 235 230 224 224 228 233 225 215 210 215 223 234 237 247 254 249 238 193 199 188 189 194 201
296 295 292 288 285 282 283 288 288 288 287 286 283 279 278 276 274 271 272 268 266 265 259 257 255 244 238 238 238 234 235 227 228 232 232 234 236 237 230 231 234 228 223 215 218 224 222 215 212 209 222 236 252 249 239 243 247 221 200 195 188 190 196
298 296 294 291 288 286 286 289 290 287 285 282 279 280 286 293 292 291 288 283 283 280 277 272 259 255 248 237 237 234 232 235 230 228 230 229 229 234 235 232 234 232 219 215 218 220 219 216 217 219 221 233 244 255 265 257 241 224 222 209 194 193 193
299 295 289 284 282 284 293 295 291 286 283 284 292 297 299 298 298 295 292 290 285 281 282 280 279 275 272 257 241 237 234 231 229 226 227 229 227 226 230 231 233 234 224 219 215 214 214 216 217 216 215 221 234 242 247 255 242 224 213 210 200 200 198